Temperature
19 19 19 19 19 19 19 19 19 19 19 19 19 19 19 19 19 19 19 19 18 18 18 18 18 18 18 18 18 18 18 17 17 17 17 17 17 17 17 17 17 17 17
19 19 19 19 19 19 20 19 19 19 19 19 19 19 19 19 19 19 19 18 18 18 18 18 18 18 18 18 18 17 17 17 17 17 17 17 17 17 17 17 17 17 17
20 19 19 19 19 19 19 19 19 19 19 19 19 19 19 19 19 18 18 18 18 18 18 18 18 18 18 18 18 17 17 17 17 17 17 17 17 17 17 17 17 17 17
20 20 19 19 19 19 19 19 19 19 19 19 19 19 19 19 18 18 18 18 18 18 18 18 18 18 18 18 17 17 17 17 17 17 17 17 17 17 17 17 17 17 17
20 20 19 19 19 19 19 19 19 19 19 19 19 19 19 18 18 18 18 18 18 18 18 18 18 17 17 17 17 17 17 17 17 17 17 17 17 17 17 17 17 17 17
20 20 20 19 19 19 19 19 19 19 19 19 19 19 19 18 18 18 18 18 18 18 18 18 17 17 17 17 17 17 17 17 17 17 17 17 17 17 17 17 17 17 16
20 20 20 20 19 19 19 19 19 19 19 19 18 18 18 18 18 18 18 18 18 18 18 18 17 17 17 17 17 17 17 17 17 17 17 17 17 17 17 17 17 16 17
20 20 20 20 19 19 19 19 19 19 19 19 18 18 18 18 18 18 18 18 18 18 18 17 17 17 17 17 17 17 17 17 17 17 17 17 17 17 17 17 17 16 16
20 20 20 20 19 19 19 19 19 19 19 18 18 18 18 18 18 18 18 18 18 18 18 17 17 17 17 17 17 17 17 17 17 17 17 17 17 17 17 17 17 16 16
20 20 20 20 19 19 19 19 19 19 19 18 18 18 18 18 18 18 18 18 18 18 18 17 17 17 17 17 17 17 17 17 17 17 17 17 17 17 17 17 17 16 16
20 20 20 20 20 19 19 19 19 19 19 18 18 18 18 18 18 18 18 18 18 18 17 17 17 17 17 17 17 17 17 17 17 17 17 17 17 17 17 17 17 17 16
20 20 20 20 20 19 19 19 19 19 19 18 18 18 18 18 18 18 18 18 18 17 17 17 17 17 17 17 17 17 17 17 17 17 17 17 17 17 17 17 17 17 17
20 20 20 20 20 19 19 19 19 19 19 18 18 18 18 18 18 18 18 18 18 17 17 17 17 17 17 17 17 17 17 17 17 17 17 17 17 17 17 17 17 17 17
21 21 20 20 20 19 19 19 19 19 19 19 18 18 18 18 18 18 18 18 18 18 18 17 17 17 17 17 17 17 17 17 17 17 17 17 17 17 17 17 17 17 17
21 21 21 20 20 19 19 19 19 19 19 19 19 18 18 18 18 18 18 18 18 18 18 17 17 17 17 17 17 17 17 17 17 17 17 17 17 17 17 17 17 17 17
21 21 21 20 20 20 19 19 19 19 19 19 19 18 18 18 18 18 18 18 18 18 18 17 17 17 17 17 17 17 17 17 17 17 17 17 17 17 17 17 17 17 17
21 21 21 20 20 20 20 19 19 19 19 19 19 18 18 18 18 18 18 18 18 18 18 17 17 17 17 17 17 17 17 17 17 17 17 17 17 17 17 17 17 17 17
21 21 20 20 20 20 20 19 19 19 19 19 18 18 18 18 18 18 18 18 18 18 18 17 17 17 17 17 17 17 17 17 17 17 17 17 17 17 17 17 17 17 17
21 21 20 20 20 20 20 19 19 19 19 19 18 18 18 18 18 18 18 18 18 18 18 17 17 17 17 17 17 17 17 17 17 17 17 17 17 17 17 17 17 17 17
21 21 20 20 20 20 19 19 19 19 19 18 18 18 18 18 18 18 18 18 18 18 18 17 17 17 17 17 17 17 17 17 17 17 17 17 17 17 17 17 17 17 17
21 21 20 20 20 19 19 19 19 19 19 19 18 18 18 18 18 18 18 18 18 18 18 18 17 17 17 17 17 17 17 17 17 17 17 17 17 17 17 17 17 17 17
21 21 20 20 20 19 19 19 19 19 19 19 19 18 18 18 18 18 18 18 18 18 18 18 17 17 17 17 17 17 17 17 18 18 18 17 17 17 17 17 17 17 17
21 20 20 20 20 19 19 19 19 18 19 19 18 18 18 18 18 18 18 18 17 17 18 18 17 17 17 17 17 17 17 17 18 18 18 18 18 17 17 17 17 17 17
21 21 20 20 20 19 19 19 19 19 19 19 19 19 18 18 18 18 18 18 18 17 17 17 17 17 17 17 17 17 17 17 17 17 18 18 18 18 18 17 17 17 17
21 21 20 20 20 19 19 19 19 19 19 19 19 18 18 18 18 18 18 18 18 18 18 17 17 17 17 17 17 17 17 17 17 17 17 18 18 18 18 18 17 17 17
20 20 20 20 20 19 19 19 18 18 19 18 18 18 18 18 18 18 18 18 18 18 17 17 17 17 17 17 17 17 17 17 17 17 17 17 17 18 18 18 18 17 17
Wind_Speed
6 9 15 15 16 17 18 19 19 19 19 19 19 18 18 17 17 16 16 16 16 16 16 16 16 16 16 16 16 17 17 17 17 17 17 17 17 18 18 18 17 16 18
9 13 16 16 16 17 18 18 18 18 18 18 18 17 17 17 16 16 15 15 15 16 16 16 16 16 16 16 17 17 17 17 17 17 17 16 17 17 17 17 16 15 17
11 13 16 16 16 16 17 17 17 17 17 17 17 16 16 16 15 15 15 15 15 15 15 16 16 16 16 16 16 16 16 16 16 16 15 14 14 15 16 16 16 16 16
12 13 15 16 16 16 16 16 16 16 16 16 16 15 15 15 14 15 15 15 15 15 15 16 16 16 16 16 16 15 16 16 16 15 12 12 12 14 15 16 15 15 15
11 12 15 17 16 16 15 15 15 15 15 15 15 15 14 14 14 14 14 14 14 14 15 15 15 15 15 15 15 15 15 14 15 13 12 11 11 14 15 15 15 15 15
9 12 15 17 16 15 15 14 14 14 14 14 14 14 13 13 13 13 13 13 14 14 15 15 15 14 14 14 14 14 14 14 13 12 11 11 11 14 14 14 14 14 14
9 11 14 17 16 15 14 14 13 13 13 13 13 13 13 12 13 13 13 13 13 13 14 14 14 13 13 13 12 13 14 13 12 11 10 10 11 13 13 14 14 14 13
10 10 13 16 16 15 14 14 13 13 12 12 12 12 12 12 12 12 12 12 12 13 13 13 13 12 12 12 11 12 13 13 11 10 9 9 11 12 13 13 13 13 13
9 8 9 13 14 14 13 13 12 12 12 11 11 11 11 11 11 11 11 11 12 12 12 12 11 11 11 10 11 12 12 12 11 9 9 9 11 12 12 12 12 12 12
7 6 7 9 11 12 12 13 12 12 11 11 11 11 10 10 10 10 10 10 11 11 10 10 10 10 9 9 10 11 12 11 10 9 8 9 11 11 11 11 11 12 11
8 6 5 6 8 10 10 11 11 11 11 10 10 10 9 8 8 8 8 9 9 9 9 9 9 9 9 9 9 10 10 9 9 8 8 9 10 10 11 11 11 11 11
11 9 6 6 7 9 9 9 8 8 8 8 8 8 8 7 6 6 6 7 8 8 8 7 7 8 7 7 7 8 7 8 8 7 8 9 10 10 10 10 10 10 10
11 10 8 7 7 7 5 7 7 7 7 7 8 8 8 6 5 4 3 3 4 5 5 6 6 6 6 5 5 5 6 7 6 6 8 10 10 10 10 10 10 9 9
11 11 9 8 7 7 6 6 6 6 6 6 7 9 7 5 3 3 3 2 3 3 4 4 4 4 4 4 5 5 6 6 6 6 8 10 10 10 10 9 9 9 9
12 11 10 9 8 7 5 5 6 6 6 7 7 8 8 5 3 3 3 3 3 3 3 3 3 3 2 3 4 5 6 6 7 6 6 9 9 10 10 10 10 10 9
12 11 10 10 8 7 5 4 5 6 7 7 7 8 9 7 5 4 3 3 3 4 3 3 2 2 1 2 2 4 5 6 7 7 7 8 9 10 10 10 10 10 10
12 10 10 10 8 7 7 6 6 7 8 7 8 9 10 9 8 6 4 3 4 5 4 3 2 2 1 2 2 3 4 6 7 8 8 8 8 10 10 11 11 11 11
11 11 11 11 10 9 7 6 5 7 7 7 9 9 10 10 9 7 4 4 5 5 4 2 2 1 1 2 2 2 3 4 6 8 8 8 9 9 10 12 12 12 12
13 12 12 10 11 10 8 6 6 6 6 7 9 9 10 11 11 8 6 6 6 4 3 3 2 2 2 3 3 2 3 4 5 7 8 9 10 10 10 12 13 14 14
10 11 11 10 10 8 6 5 4 4 4 6 8 9 11 11 12 10 7 6 6 4 3 3 3 2 2 2 2 2 2 3 4 6 7 8 10 11 11 11 12 13 15
9 10 11 11 9 8 6 6 5 5 4 4 6 10 12 12 12 10 6 5 6 5 5 5 3 3 2 2 1 1 2 2 4 5 6 7 9 11 12 13 12 12 12
12 11 10 10 10 9 8 6 4 3 3 4 4 6 10 11 11 10 8 6 6 5 5 5 4 3 2 3 3 1 1 3 3 5 5 7 8 9 11 13 13 14 14
11 12 11 10 9 9 7 5 3 2 1 2 3 4 6 10 11 10 10 7 6 6 6 6 6 5 4 3 2 3 3 4 2 2 4 6 6 6 8 10 12 14 15
10 9 9 9 9 8 8 7 7 6 5 5 5 5 5 7 8 10 9 8 7 6 6 6 6 5 5 4 3 3 2 3 2 2 2 3 5 7 8 8 10 12 14
8 8 8 8 7 7 8 8 8 6 4 3 3 4 5 5 7 9 9 8 7 6 6 6 5 6 5 5 4 3 2 1 2 2 3 3 3 4 6 7 8 9 12
6 6 7 8 7 7 7 7 7 7 5 4 4 4 4 4 5 7 8 8 7 6 6 6 6 7 6 6 5 4 4 3 4 4 5 4 4 4 4 4 5 7 9
Wind_Direction
149 148 138 129 121 116 114 112 111 112 112 113 113 114 114 114 113 112 110 109 107 108 108 106 107 108 109 109 108 107 108 109 110 109 110 109 109 109 109 108 107 107 109
144 148 141 133 126 121 118 116 115 115 115 115 115 115 116 115 114 113 112 110 109 109 108 107 108 109 108 108 109 109 110 111 111 110 109 109 111 112 111 110 110 113 112
138 144 141 136 130 125 121 120 119 118 117 117 117 117 117 116 116 115 112 111 110 110 110 109 108 109 109 109 110 111 111 111 111 108 105 105 110 112 113 114 113 114 114
138 140 142 139 134 130 126 124 122 121 120 119 119 119 119 118 117 116 113 112 111 111 112 112 111 111 112 112 113 113 112 111 110 107 103 107 112 115 115 115 115 114 114
134 139 147 143 138 134 131 128 126 125 123 123 121 120 121 120 119 117 116 115 115 114 114 114 113 113 114 114 115 115 114 111 109 105 101 103 112 118 118 117 117 115 114
132 143 151 146 143 140 136 133 130 128 127 126 125 124 123 122 121 121 120 117 117 116 115 114 114 114 114 116 115 117 116 112 108 105 103 107 115 121 121 120 120 120 118
139 147 153 150 148 145 142 138 135 133 131 129 128 128 127 126 126 124 122 120 119 118 117 115 115 114 115 118 118 120 119 117 112 109 108 111 119 123 123 123 122 121 119
143 146 154 154 152 150 147 143 141 139 136 134 132 130 128 127 127 126 125 123 122 120 119 118 116 115 116 117 119 123 125 124 121 117 115 118 122 123 123 124 124 124 124
140 143 150 155 156 155 152 149 147 144 141 139 136 134 132 131 129 127 126 126 125 124 123 122 119 118 118 119 123 127 132 130 127 126 126 125 128 128 127 128 128 128 127
139 141 142 147 151 154 157 156 153 150 147 145 142 140 138 136 133 129 127 128 128 127 125 125 123 122 121 121 126 130 136 132 132 133 133 137 136 135 133 132 132 132 130
158 152 144 143 146 150 156 163 160 157 155 151 149 145 134 124 124 128 134 135 134 131 129 127 125 121 118 119 124 130 132 135 138 139 144 147 146 145 142 139 137 136 136
174 171 160 153 151 154 163 161 157 154 152 147 142 136 130 127 129 131 145 145 142 138 132 127 122 116 111 113 118 125 132 140 144 150 156 157 156 152 148 147 145 144 144
176 177 172 165 161 162 157 152 149 145 143 143 144 142 138 133 129 123 126 129 129 130 120 115 111 112 115 123 123 133 144 151 157 164 169 169 168 164 160 157 157 155 155
177 182 176 172 168 170 164 158 153 150 151 153 158 158 150 144 141 139 137 133 125 127 123 117 118 125 129 141 152 154 158 163 171 174 179 181 182 178 173 170 169 168 167
184 185 182 178 176 173 167 168 167 167 169 171 170 174 171 165 167 170 173 174 170 155 142 131 131 136 148 160 174 173 178 181 183 186 189 191 192 189 186 183 182 181 180
188 188 182 183 179 174 175 173 172 178 180 181 186 190 189 186 184 185 191 197 200 191 179 164 161 159 168 176 187 190 196 194 192 196 199 202 203 202 200 196 193 192 191
187 185 184 186 179 179 181 182 181 185 186 190 197 200 198 198 195 193 197 208 215 205 190 172 159 151 173 184 196 201 200 197 200 204 206 208 211 213 213 210 206 205 203
179 182 187 192 185 187 185 181 181 184 191 198 201 203 206 203 199 194 199 213 216 206 194 181 175 173 196 195 202 213 203 201 210 211 212 212 214 218 221 221 219 217 215
182 181 185 190 186 188 185 180 186 187 196 203 200 202 206 203 200 196 203 211 204 198 201 209 190 182 198 208 215 221 221 215 218 218 219 220 220 221 225 229 228 227 226
179 179 184 190 187 179 173 171 183 189 201 201 201 203 202 202 199 197 205 204 190 189 200 200 192 190 193 199 223 232 246 237 227 225 227 227 227 227 228 231 234 235 234
179 181 184 188 187 175 175 181 187 203 202 200 206 206 202 202 197 195 206 197 188 195 202 195 186 194 204 161 130 340 309 259 243 237 233 232 233 232 230 231 233 235 238
186 187 183 187 186 186 188 182 181 181 196 202 204 204 205 202 198 200 198 198 195 196 197 192 180 178 196 170 159 139 308 310 266 241 232 234 239 236 234 234 232 233 235
191 191 191 188 186 188 180 160 146 133 134 176 204 204 206 204 203 201 199 197 196 197 201 197 186 184 195 197 188 163 175 234 279 279 239 234 234 232 236 237 235 235 235
195 188 184 183 182 181 175 176 179 189 200 204 204 203 198 202 204 205 201 199 199 200 202 206 198 196 186 202 208 211 199 175 191 287 292 250 239 236 237 239 239 238 236
183 175 176 172 177 180 184 185 189 200 203 193 192 197 201 202 205 207 204 202 204 207 208 206 196 198 199 200 196 189 196 194 193 201 267 289 274 250 241 239 239 240 238
167 168 167 168 179 181 184 183 189 195 194 197 209 209 210 208 211 210 209 208 207 207 207 207 203 200 204 205 204 196 188 187 199 200 229 254 264 269 255 247 240 240 239
Height
1523 1525 1527 1529 1530 1531 1532 1533 1534 1535 1536 1537 1538 1539 1540 1541 1542 1543 1544 1544 1545 1546 1547 1548 1550 1551 1551 1553 1553 1554 1555 1556 1558 1559 1560 1561 1562 1564 1565 1566 1568 1569 1570
1523 1526 1529 1531 1532 1534 1535 1536 1537 1538 1539 1540 1541 1542 1543 1543 1544 1545 1546 1547 1548 1549 1550 1551 1552 1553 1554 1555 1556 1557 1558 1559 1560 1561 1563 1564 1565 1566 1567 1569 1570 1571 1572
1524 1527 1530 1532 1534 1536 1537 1538 1539 1540 1541 1542 1543 1544 1545 1546 1547 1548 1549 1550 1550 1551 1552 1553 1554 1555 1556 1557 1558 1559 1560 1561 1563 1564 1565 1566 1568 1569 1570 1571 1572 1574 1575
1526 1529 1532 1534 1536 1538 1539 1540 1541 1542 1543 1544 1545 1546 1547 1548 1549 1550 1551 1552 1553 1554 1555 1556 1557 1558 1559 1560 1561 1562 1563 1564 1565 1566 1567 1569 1570 1571 1572 1574 1575 1576 1577
1528 1531 1533 1536 1538 1539 1541 1542 1543 1545 1546 1547 1548 1549 1550 1551 1552 1553 1553 1554 1555 1556 1557 1558 1559 1560 1561 1563 1564 1565 1566 1567 1568 1569 1570 1571 1572 1574 1575 1576 1577 1578 1579
1530 1533 1535 1537 1540 1541 1543 1544 1546 1547 1548 1549 1550 1551 1552 1553 1554 1555 1556 1557 1558 1558 1560 1561 1562 1563 1564 1565 1566 1567 1568 1569 1570 1571 1572 1573 1574 1576 1577 1578 1579 1580 1582
1531 1534 1537 1539 1541 1543 1545 1546 1548 1549 1550 1551 1552 1553 1554 1555 1556 1557 1558 1559 1560 1561 1562 1563 1565 1566 1567 1568 1569 1570 1571 1572 1573 1573 1574 1575 1576 1578 1579 1580 1581 1582 1583
1533 1536 1538 1541 1543 1545 1546 1548 1549 1551 1552 1553 1554 1555 1556 1557 1558 1559 1560 1561 1562 1563 1565 1566 1567 1568 1569 1570 1572 1573 1573 1574 1575 1576 1577 1578 1578 1580 1581 1582 1583 1584 1585
1535 1537 1540 1542 1544 1546 1548 1550 1551 1552 1554 1555 1556 1557 1558 1559 1560 1561 1562 1563 1564 1566 1567 1568 1569 1571 1572 1573 1574 1575 1575 1576 1577 1578 1578 1579 1580 1581 1582 1583 1585 1586 1587
1536 1538 1541 1543 1545 1547 1549 1551 1553 1554 1555 1556 1558 1559 1560 1561 1562 1563 1564 1565 1567 1568 1569 1570 1572 1573 1574 1575 1576 1577 1578 1578 1579 1580 1580 1581 1582 1583 1584 1585 1586 1587 1588
1536 1539 1542 1544 1546 1548 1550 1552 1554 1555 1557 1558 1559 1560 1561 1562 1563 1565 1566 1567 1568 1570 1571 1573 1574 1575 1576 1577 1578 1579 1579 1580 1581 1581 1582 1583 1584 1584 1585 1586 1587 1588 1589
1535 1539 1542 1544 1546 1549 1551 1552 1554 1556 1557 1559 1560 1561 1563 1564 1565 1566 1568 1569 1570 1572 1573 1574 1576 1577 1578 1579 1580 1580 1581 1582 1582 1583 1584 1584 1585 1586 1586 1587 1588 1589 1591
1535 1538 1541 1544 1547 1549 1551 1553 1555 1557 1558 1560 1561 1563 1564 1565 1567 1568 1569 1570 1571 1573 1574 1576 1577 1578 1579 1580 1581 1582 1582 1583 1584 1584 1585 1585 1586 1587 1587 1588 1589 1590 1591
1535 1538 1541 1544 1546 1549 1551 1553 1555 1557 1559 1561 1562 1564 1565 1567 1568 1569 1570 1572 1573 1574 1575 1577 1578 1579 1580 1581 1582 1583 1584 1584 1585 1585 1586 1586 1587 1588 1588 1589 1590 1591 1592
1535 1538 1541 1544 1546 1549 1551 1554 1556 1558 1560 1561 1563 1565 1566 1568 1569 1570 1571 1573 1574 1575 1576 1578 1579 1580 1581 1582 1583 1584 1584 1585 1586 1586 1586 1587 1588 1588 1589 1589 1590 1591 1592
1534 1537 1540 1543 1546 1549 1551 1554 1556 1558 1560 1562 1564 1565 1567 1569 1570 1571 1572 1573 1575 1576 1577 1578 1579 1581 1582 1583 1583 1584 1585 1585 1586 1586 1587 1587 1588 1588 1589 1590 1590 1591 1592
1533 1537 1540 1543 1546 1548 1551 1554 1556 1558 1560 1562 1564 1566 1567 1569 1570 1572 1573 1574 1575 1576 1577 1578 1580 1581 1582 1583 1583 1584 1585 1585 1586 1586 1587 1587 1588 1588 1589 1589 1590 1591 1591
1532 1536 1539 1542 1544 1547 1550 1553 1555 1558 1560 1562 1564 1566 1567 1569 1570 1571 1573 1574 1575 1576 1577 1579 1579 1580 1581 1582 1583 1584 1584 1585 1585 1586 1586 1587 1587 1588 1588 1589 1590 1590 1591
1530 1534 1537 1540 1543 1546 1549 1552 1554 1557 1559 1561 1563 1565 1566 1568 1569 1571 1572 1573 1575 1576 1577 1578 1579 1580 1581 1581 1582 1583 1583 1584 1584 1585 1586 1586 1586 1587 1587 1588 1589 1589 1590
1530 1533 1536 1539 1541 1545 1548 1550 1553 1555 1557 1560 1561 1563 1565 1566 1568 1569 1571 1572 1573 1574 1575 1577 1578 1579 1580 1580 1581 1582 1582 1582 1583 1583 1584 1585 1585 1586 1586 1587 1587 1588 1588
1528 1530 1533 1536 1539 1542 1545 1547 1550 1552 1555 1557 1559 1561 1563 1565 1566 1568 1569 1570 1571 1572 1574 1575 1576 1577 1578 1579 1580 1580 1581 1581 1581 1581 1582 1583 1583 1584 1584 1585 1585 1586 1586
1524 1527 1530 1534 1537 1540 1543 1545 1548 1551 1553 1555 1557 1559 1561 1563 1564 1566 1567 1568 1569 1570 1572 1573 1574 1575 1576 1578 1578 1579 1579 1580 1579 1579 1579 1580 1581 1581 1582 1582 1583 1583 1584
1521 1524 1527 1531 1534 1537 1541 1544 1546 1548 1550 1552 1554 1556 1558 1560 1562 1563 1564 1566 1567 1568 1569 1571 1572 1573 1574 1575 1576 1578 1577 1577 1577 1577 1577 1577 1578 1579 1579 1580 1580 1581 1581
1518 1521 1525 1529 1532 1535 1538 1540 1543 1544 1546 1548 1551 1553 1555 1557 1558 1560 1561 1562 1564 1565 1566 1568 1569 1570 1571 1572 1573 1574 1575 1575 1576 1575 1575 1575 1575 1575 1576 1576 1577 1578 1578
1516 1519 1522 1526 1529 1532 1535 1537 1540 1542 1544 1546 1548 1550 1552 1553 1554 1556 1557 1559 1560 1561 1563 1564 1565 1567 1568 1569 1570 1571 1572 1572 1573 1573 1572 1572 1572 1573 1573 1573 1573 1574 1574
1514 1517 1520 1523 1526 1529 1531 1534 1536 1539 1541 1543 1544 1547 1548 1549 1551 1552 1554 1555 1556 1558 1559 1560 1562 1563 1564 1565 1566 1567 1568 1569 1569 1569 1569 1569 1569 1569 1570 1570 1570 1570 1570